Location: Proctor
(47.8934°N, 114.3048°W)
Time: 13:25:56
(UTC+00:00)

AO-109 - Visible Passes

Search period start: 02 July 2022 00:00
Search period end: 12 July 2022 00:00
Orbit: 476 x 502 km, 60.7° (Epoch: 01 July)

Date Brightness Start Highest point End Pass type
(mag) Time Alt. Az. Time Alt. Az. Time Alt. Az.
04 Jul ? 10:52:02 10° SSW 10:55:42 63° SE 10:59:25 10° NE visible
05 Jul ? 10:28:15 14° SSW 10:31:16 55° SE 10:34:57 10° NE visible
06 Jul ? 10:04:32 20° SSW 10:06:50 49° SE 10:10:28 10° NE visible
07 Jul ? 09:40:46 26° S 09:42:24 43° SE 09:45:58 10° ENE visible
08 Jul ? 09:16:56 31° SSE 09:17:57 38° SE 09:21:27 10° ENE visible
08 Jul ? 10:52:05 10° W 10:55:29 32° NNW 10:58:56 10° NNE visible
09 Jul ? 08:53:04 32° SE 08:53:30 34° SE 08:56:55 10° ENE visible
09 Jul ? 10:27:31 10° WSW 10:30:59 35° NW 10:34:29 10° NNE visible
10 Jul ? 08:29:08 30° ESE 08:29:08 30° ESE 08:32:22 10° ENE visible
10 Jul ? 10:03:32 14° WSW 10:06:28 38° NW 10:10:01 10° NE visible
11 Jul ? 08:05:09 25° ESE 08:05:09 25° ESE 08:07:47 10° ENE visible
11 Jul ? 09:39:33 18° WSW 09:41:57 42° NW 09:45:33 10° NE visible
